Flag for U.S.A. Weather past 2 weeks in Brattleboro, Vermont, U.S.A.

Now
30 °F

Overcast.


Feels Like: 30 °F
Forecast: 26 / 36 °F
Wind: No wind

Location: Keene / Dillant

Current Time: Dec 22, 2014 at 5:22:36 AM

Latest Report: Dec 22, 2014 at 4:55 AM


Visibility: 6 mi

Pressure: 30.35 "Hg

Humidity: 93%

Dew point: 28 °F

Location of BrattleboroLocation

Historic Weather in Brattleboro — Graph

°F

Brattleboro temperature yesterday

Maximum temperature yesterday: 34 °F (at 2:15 PM)
Minimum temperature yesterday: 28 °F (at 5:35 AM)
Average temperature yesterday: 31 °F

Past Weeks' High & Low Weather Summary

 TemperatureHumidityPressure
High41 °F (Dec 17, 1:35 PM)100% (Dec 9, 9:15 AM)30.76 "Hg (Dec 9, 9:15 AM)
Low10 °F (Dec 8, 3:55 AM)43% (Dec 7, 1:15 PM)29.45 "Hg (Dec 10, 8:35 PM)
Average31 °F81%30.01 "Hg
* Reported Dec 7 4:15 AM — Dec 22 4:15 AM, Brattleboro, Weather by CustomWeather, © 2014

Note: Actual official high and low records may vary slightly from our data, if they occured in-between our weather recording intervals... More about our weather records

Advertising

Brattleboro weather history for previous 24 hours

 ConditionsComfort  
Time TempWeatherWind HumidityBarometerVisibility
4:15 AM
Dec 22
30 °FOvercast.No wind93%30.35 "Hg5 mi
3:55 AM30 °FOvercast.No wind100%30.35 "Hg5 mi
3:35 AM30 °FOvercast.No wind93%30.34 "Hg5 mi
3:15 AM30 °FOvercast.No wind100%30.35 "Hg4 mi
2:55 AM30 °FOvercast.No wind93%30.35 "Hg4 mi
2:35 AM30 °FOvercast.No wind93%30.35 "Hg5 mi
2:15 AM30 °FOvercast.No wind100%30.35 "Hg5 mi
1:55 AM30 °FOvercast.No wind93%30.36 "Hg5 mi
1:35 AM30 °FMostly cloudy.No wind100%30.35 "Hg5 mi
1:15 AM30 °FMostly cloudy.No wind100%30.35 "Hg6 mi
12:55 AM30 °FOvercast.No wind100%30.35 "Hg5 mi
12:35 AM30 °FMostly cloudy.No wind100%30.35 "Hg6 mi
12:15 AM30 °FOvercast.No wind93%30.35 "Hg7 mi
11:55 PM
Dec 21
30 °FOvercast.No wind100%30.35 "Hg7 mi
11:35 PM30 °FOvercast.No wind93%30.35 "Hg7 mi
10:55 PM30 °FOvercast.No wind93%30.35 "Hg8 mi
10:35 PM30 °FMostly cloudy.No wind100%30.35 "Hg8 mi
10:15 PM30 °FOvercast.No wind100%30.35 "Hg7 mi
9:55 PM30 °FOvercast.No wind100%30.35 "Hg5 mi
9:35 PM30 °FLow clouds.No wind100%30.35 "Hg5 mi
9:15 PM30 °FMostly cloudy.No wind100%30.35 "Hg3 mi
8:55 PM30 °FLow clouds.No wind100%30.34 "Hg3 mi
8:35 PM30 °FOvercast.No wind100%30.35 "Hg3 mi
8:15 PM30 °FOvercast.No wind100%30.34 "Hg3 mi
7:55 PM30 °FOvercast.No wind100%30.34 "Hg3 mi
7:35 PM30 °FOvercast.No wind93%30.34 "Hg2 mi
7:15 PM32 °FOvercast.No wind87%30.34 "Hg10 mi
6:55 PM32 °FOvercast.No wind87%30.34 "Hg10 mi
6:35 PM32 °FOvercast.No wind87%30.33 "Hg10 mi
6:15 PM32 °FOvercast.No wind87%30.33 "Hg10 mi
5:55 PM32 °FOvercast.No wind87%30.32 "Hg10 mi
5:35 PM32 °FOvercast.No wind87%30.32 "Hg10 mi
5:15 PM32 °FOvercast.No wind87%30.31 "Hg10 mi
4:35 PM32 °FOvercast.No wind87%30.30 "Hg10 mi
3:55 PM34 °FOvercast.No wind81%30.30 "Hg10 mi
3:35 PM34 °FMore clouds than sun.6 mph81%30.30 "Hg10 mi
2:55 PM34 °FMostly cloudy.No wind81%30.29 "Hg10 mi
2:35 PM34 °FMostly cloudy.No wind81%30.29 "Hg10 mi
2:15 PM34 °FOvercast.No wind81%30.29 "Hg10 mi
1:55 PM32 °FMostly cloudy.3 mph87%30.29 "Hg10 mi
1:35 PM32 °FMostly cloudy.5 mph87%30.29 "Hg8 mi
1:15 PM32 °FCloudy.3 mph87%30.29 "Hg2 mi
12:55 PM32 °FMostly cloudy.3 mph87%30.29 "Hg2 mi
12:35 PM32 °FMore clouds than sun.No wind87%30.29 "Hg2 mi
12:15 PM30 °FMore clouds than sun.5 mph93%30.30 "Hg4 mi
11:55 AM30 °FMore clouds than sun.3 mph93%30.30 "Hg4 mi
11:35 AM30 °FMostly cloudy.No wind93%30.30 "Hg2 mi
11:15 AM30 °FOvercast.5 mph86%30.31 "Hg7 mi
10:55 AM30 °FOvercast.3 mph93%30.32 "Hg5 mi
10:35 AM30 °FLow clouds.3 mph93%30.32 "Hg4 mi
10:15 AM30 °FCloudy.3 mph86%30.32 "Hg2 mi
9:55 AM30 °FMostly cloudy.3 mph93%30.33 "Hg2 mi
9:35 AM30 °FLow clouds.5 mph93%30.32 "Hg2 mi
9:15 AM30 °FMostly cloudy.5 mph86%30.32 "Hg1 mi
8:55 AM28 °FMostly cloudy.N/A100%30.32 "Hg1 mi
8:35 AM28 °FMostly cloudy.5 mph100%30.32 "Hg1 mi
8:15 AM28 °FMore clouds than sun.3 mph93%30.31 "Hg1 mi
7:55 AM28 °FCloudy.3 mph93%30.30 "Hg1 mi
7:35 AM28 °FOvercast.3 mph93%30.30 "Hg1 mi
7:15 AM28 °FOvercast.No wind93%30.30 "Hg2 mi
6:55 AM28 °FOvercast.5 mph93%30.30 "Hg4 mi
6:35 AM28 °FOvercast.5 mph86%30.30 "Hg6 mi
6:15 AM30 °FOvercast.3 mph86%30.30 "Hg5 mi
5:55 AM30 °FOvercast.3 mph86%30.29 "Hg7 mi
5:35 AM28 °FOvercast.5 mph93%30.28 "Hg10 mi
5:15 AM30 °FOvercast.3 mph86%30.28 "Hg5 mi
Weather by CustomWeather, © 2014

See weather overviewHow to use our weather pages